Location: C�an Torras
(41.5052°N, 1.9280°E)
Time: 20:57:31
(UTC+00:00)

IRS-1C Rocket - Pass Details

Date: 20 January 2021
Orbit: 801 x 805 km, 99.0° (Epoch: 03 March)

Event Time Altitude Azimuth Distance (km) Brightness Sun altitude
Rises 17:46:57 0° 149° (SSE) 3,298 7.1 -10.1°
Reaches altitude 10° 17:49:19 10° 144° (SE) 2,371 6.4 -10.5°
Maximum altitude 17:54:21 50° 70° (ENE) 1,020 4.2 -11.4°
Drops below altitude 10° 17:59:25 10° 357° (N) 2,386 6.4 -12.3°
Sets 18:01:49 0° 352° (N) 3,320 7.2 -12.8°
